STARLINK-1073 1 44914U 20001A 21062.71574383 .00001550 00000-0 12299-3 0 9991 2 44914 53.0573 290.6370 0002461 80.3449 279.7818 15.06393464 63726 STARLINK-1084 1 44915U 20001B 21062.14809158 .00001075 00000-0 91097-4 0 9996 2 44915 53.0571 293.1836 0002221 84.0427 276.0815 15.06397318 63641 STARLINK-1097 1 44916U 20001C 21063.02166022 .00002586 00000-0 19240-3 0 9998 2 44916 53.0570 289.2623 0002076 84.7960 275.3266 15.06406863 63770 STARLINK-1098 1 44917U 20001D 21062.74890702 .00000846 00000-0 75745-4 0 9996 2 44917 53.0566 290.4901 0002284 86.3723 273.7527 15.06396771 63739 STARLINK-1099 1 44918U 20001E 21062.36187744 .00000663 00000-0 63423-4 0 9997 2 44918 53.0584 292.2222 0002170 81.3322 278.7913 15.06389140 64412 STARLINK-1101 1 44919U 20001F 21062.70464833 .00000505 00000-0 52804-4 0 9999 2 44919 53.0571 290.6842 0002302 85.3217 274.8035 15.06404892 63720 STARLINK-1102 1 44920U 20001G 21063.04009810 .00000958 00000-0 83272-4 0 9994 2 44920 53.0582 289.1808 0002312 85.3119 274.8134 15.06383850 63776 STARLINK-1103 1 44921U 20001H 21062.12104691 .00000737 00000-0 69757-4 0 9993 2 44921 52.9994 293.3235 0002232 82.4066 277.7176 15.05584503 63633 STARLINK-1104 1 44922U 20001J 21063.02904542 .00000774 00000-0 70921-4 0 9993 2 44922 53.0593 289.2235 0002485 84.3634 275.7638 15.06395164 63777 STARLINK-1106 1 44923U 20001K 21062.59042129 .00005560 00000-0 39189-3 0 9997 2 44923 53.0587 291.1960 0001933 85.2894 274.8316 15.06396945 63707 STARLINK-1111 1 44924U 20001L 21062.11492248 .00000683 00000-0 64750-4 0 9991 2 44924 53.0581 293.3324 0002351 83.4640 276.6616 15.06395516 63632 STARLINK-1112 1 44925U 20001M 21062.59410220 .00000685 00000-0 64876-4 0 9995 2 44925 53.0580 291.1746 0002140 82.5793 277.5439 15.06394961 63705 STARLINK-1113 1 44926U 20001N 21063.14665150 -.00001022 00000-0 -50917-4 0 9991 2 44926 53.0005 288.7359 0002396 80.9323 279.1936 15.05583423 64527 STARLINK-1114 1 44927U 20001P 21062.60514322 -.00001099 00000-0 -54899-4 0 9993 2 44927 53.0574 291.1276 0002251 87.2429 272.8818 15.06394604 63713 STARLINK-1119 1 44928U 20001Q 21062.99953431 .00000680 00000-0 64558-4 0 9990 2 44928 53.0569 289.3603 0002156 80.0412 280.0820 15.06407045 63772 STARLINK-1121 1 44929U 20001R 21062.71941323 .00002456 00000-0 18364-3 0 9994 2 44929 53.0598 290.6097 0002017 82.2227 277.8990 15.06411731 63725 STARLINK-1123 1 44930U 20001S 21062.81894219 .00001362 00000-0 11037-3 0 9993 2 44930 53.0593 290.1633 0002175 84.1886 275.9351 15.06393853 63746 STARLINK-1128 1 44931U 20001T 21062.99586238 -.00004087 00000-0 -25573-3 0 9991 2 44931 53.0565 289.3765 0002441 89.2579 270.8690 15.06378190 64505 STARLINK-1130 (DARKSAT) 1 44932U 20001U 21063.07326814 .00000718 00000-0 67166-4 0 9994 2 44932 53.0586 289.0181 0002552 85.8855 274.2426 15.06390822 65018 STARLINK-1144 1 44933U 20001V 21063.03272589 .00001085 00000-0 91746-4 0 9999 2 44933 53.0576 289.2167 0002338 86.1928 273.9328 15.06389069 65064 STARLINK-1071 1 44934U 20001W 21062.84656327 .00001629 00000-0 12823-3 0 9996 2 44934 53.0574 270.0522 0002478 95.0684 265.0588 15.06406731 64020 STARLINK-1072 1 44935U 20001X 21062.74705879 -.00001324 00000-0 -69983-4 0 9997 2 44935 53.0576 270.4998 0002523 90.4900 269.6379 15.06395613 64018 STARLINK-1078 1 44936U 20001Y 21063.18105336 -.00001031 00000-0 -50276-4 0 9999 2 44936 53.0522 268.4732 0002397 81.2768 278.8492 15.06423821 64079 STARLINK-1079 1 44937U 20001Z 21062.82447727 .00000813 00000-0 73520-4 0 9995 2 44937 53.0570 270.1475 0001977 93.0630 267.0585 15.06388808 64022 STARLINK-1082 1 44938U 20001AA 21062.85763177 -.00001160 00000-0 -58987-4 0 9997 2 44938 53.0576 270.0051 0002406 84.6947 275.4316 15.06392555 64022 STARLINK-1083 1 44939U 20001AB 21062.86502745 .00000898 00000-0 79216-4 0 9994 2 44939 53.0569 269.9709 0002256 86.1032 274.0215 15.06389321 64027 STARLINK-1091 1 44940U 20001AC 21062.61069080 .00000373 00000-0 43977-4 0 9992 2 44940 53.0575 271.1133 0002306 87.7380 272.3873 15.06395867 63988 STARLINK-1094 1 44941U 20001AD 21062.83182568 .00000484 00000-0 51433-4 0 9993 2 44941 53.0566 270.1151 0002359 87.0480 273.0779 15.06404444 64021 STARLINK-1096 1 44942U 20001AE 21062.68438618 .00000495 00000-0 52141-4 0 9996 2 44942 53.0567 270.7816 0002030 79.4459 280.6758 15.06404088 64007 STARLINK-1100 1 44943U 20001AF 21062.86134013 .00000488 00000-0 51682-4 0 9990 2 44943 53.0720 269.9236 0002021 81.6421 278.4797 15.06392956 64029 STARLINK-1108 1 44944U 20001AG 21062.71019050 -.00000525 00000-0 -16324-4 0 9996 2 44944 53.0572 270.6635 0002515 95.9749 264.1526 15.06392541 64006 STARLINK-1109 1 44945U 20001AH 21062.93872166 .00000431 00000-0 47842-4 0 9999 2 44945 53.0570 269.6397 0002461 88.0512 272.0759 15.06401657 64037 STARLINK-1110 1 44946U 20001AJ 21062.84487045 .00001908 00000-0 14563-3 0 9991 2 44946 53.0036 269.2180 0002260 104.9853 255.1386 15.06753587 64034 STARLINK-1116 1 44947U 20001AK 21062.82816046 .00000640 00000-0 61919-4 0 9997 2 44947 53.0568 270.1311 0002244 85.9068 274.2178 15.06389612 64024 STARLINK-1122 1 44949U 20001AM 21062.85395874 .00000523 00000-0 54054-4 0 9995 2 44949 53.0566 270.0182 0002469 84.9498 275.1773 15.06395194 64027 STARLINK-1125 1 44950U 20001AN 21063.00138559 .00000467 00000-0 50252-4 0 9993 2 44950 53.0568 269.3576 0002410 88.5597 271.5668 15.06402480 64047 STARLINK-1126 1 44951U 20001AP 21062.95003143 .00001892 00000-0 14518-3 0 9994 2 44951 53.0018 269.0278 0002433 106.1256 254.0001 15.06588941 65335 STARLINK-1117 1 44952U 20001AQ 21062.83551464 -.00001453 00000-0 -78674-4 0 9995 2 44952 53.0577 270.1049 0002084 93.2376 266.8851 15.06392687 64025 STARLINK-1124 1 44953U 20001AR 21062.85025169 .00000445 00000-0 48812-4 0 9995 2 44953 53.0579 270.0349 0002264 84.5007 275.6240 15.06400865 65315 STARLINK-1066 1 44954U 20001AS 21062.80052480 .00000728 00000-0 67785-4 0 9991 2 44954 53.0564 250.2727 0002506 96.3202 263.8073 15.06386673 64241 STARLINK-1069 1 44955U 20001AT 21062.80789445 .00000449 00000-0 49072-4 0 9999 2 44955 53.0557 250.2410 0002749 102.0372 258.0926 15.06392139 64242 STARLINK-1070 1 44956U 20001AU 21062.80420544 .00000670 00000-0 63923-4 0 9999 2 44956 53.0551 250.2531 0002632 96.2440 263.8849 15.06393131 64300 STARLINK-1074 1 44957U 20001AV 21062.56461377 .00000269 00000-0 37018-4 0 9992 2 44957 53.0560 251.3306 0002725 98.7251 261.4047 15.06398219 64264 STARLINK-1075 1 44958U 20001AW 21062.82262390 .00001094 00000-0 92378-4 0 9993 2 44958 53.0568 250.1789 0003014 104.5024 255.6299 15.06390484 64306 STARLINK-1076 1 44959U 20001AX 21062.77839004 .00000587 00000-0 58347-4 0 9994 2 44959 53.0562 250.3764 0003433 102.5753 257.5620 15.06404444 64297 STARLINK-1080 1 44961U 20001AZ 21062.78578139 .00000394 00000-0 45404-4 0 9993 2 44961 53.0577 250.3460 0002518 93.1225 267.0052 15.06388372 64309 STARLINK-1081 1 44962U 20001BA 21062.77081963 .00000403 00000-0 46825-4 0 9996 2 44962 52.9991 250.4161 0001907 91.9054 268.2152 15.05579950 64299 STARLINK-1085 1 44963U 20001BB 21062.78029217 .00003932 00000-0 28109-3 0 9996 2 44963 52.9993 249.6922 0002766 93.0356 267.0949 15.06620426 65040 STARLINK-1086 1 44964U 20001BC 21062.81525001 .00000536 00000-0 54921-4 0 9992 2 44964 53.0565 250.2105 0002895 99.1599 260.9718 15.06398847 64301 STARLINK-1088 1 44966U 20001BE 21062.77103157 .00000526 00000-0 54276-4 0 9995 2 44966 53.0570 250.4155 0002464 96.1074 264.0196 15.06390972 64297 STARLINK-1089 1 44967U 20001BF 21062.79314781 .00000371 00000-0 43870-4 0 9991 2 44967 53.0579 250.3110 0002564 92.8865 267.2418 15.06392142 64304 STARLINK-1090 1 44968U 20001BG 21062.78944239 -.00001279 00000-0 -66927-4 0 9996 2 44968 53.0587 250.3295 0002790 94.2234 265.9073 15.06391514 64309 STARLINK-1092 1 44969U 20001BH 21062.78208204 .00000513 00000-0 53380-4 0 9999 2 44969 53.0552 250.3530 0002778 98.5732 261.5571 15.06394646 64292 STARLINK-1093 1 44970U 20001BJ 21062.79737373 .00000502 00000-0 53643-4 0 9996 2 44970 52.9984 250.2910 0002246 92.4257 267.6988 15.05572529 64293 STARLINK-1095 1 44971U 20001BK 21062.78380413 .00002110 00000-0 16299-3 0 9997 2 44971 53.0000 250.3334 0002766 99.9914 260.1386 15.05810269 64291 STARLINK-1107 1 44972U 20001BL 21062.79681179 -.00001193 00000-0 -61181-4 0 9995 2 44972 53.0566 250.2924 0002702 95.0119 265.1178 15.06393011 64305 STARLINK-1115 1 44973U 20001BM 21062.50932875 .00000403 00000-0 45966-4 0 9991 2 44973 53.0558 251.5837 0002688 94.0725 266.0571 15.06390948 64256